851  
ASUS42 KKEY 041510  
RWRKEY  
 
FLORIDA REGIONAL WEATHER ROUNDUP FOR THE FLORIDA KEYS  
NATIONAL WEATHER SERVICE KEY WEST FLORIDA  
1100 AM EDT WED MAY 04 2016  
   
..SOUTH FLORIDA AND THE KEYS
 
 
 
CITY SKY/WX TMP DP RH WIND PRES REMARKS
 
FORT MYERS CLOUDY 80 72 76 S8 29.85F  
SW REGIONAL AP CLOUDY 81 72 74 S9 29.86F  
NAPLES N/A 81 73 78 S8 29.87R  
MIAMI CLOUDY 83 73 72 SW9 29.88S  
WEST KENDALL RAIN 71 64 78 S12G26 29.90R  
HOMESTEAD CLOUDY 81 68 65 NW13G21 29.89R THUNDER  
MARATHON PTSUNNY 87 77 72 SW8G17 29.87R HX 99  
BOCA CHICA NAS CLOUDY 86 77 74 SW15 29.87R HX 97  
KEY WEST INTL CLOUDY 81 78 91 SW14 29.88R  
   
..INTERNATIONAL WEATHER
 
 
 
CITY SKY/WX TMP DP RH WIND PRES REMARKS
 
NASSAU BAHAMAS MOSUNNY 86 79 79 E13 29.91S HX 99  
CANCUN MEXICO MOSUNNY 86 77 74 S15 29.88F HX 97  
COZUMEL MEXICO MOSUNNY 84 77 79 S8 29.89S HX 94  
 
ADJACENT COASTAL WATERS...  
 
STATION/POSITION TIME SKY/WX TEMP WIND PRES WAVE
 
AIR SEA DIR/SP/G HT/PER  
(UTC) (F) (DEG/KT/KT) (MB) (FT/S)  
PULASKI SHOAL LI 1500 80 220/ 10/ 11 1011.3R  
SAND KEY 1450 81 220/ 16/ 18 1011.8R  
SOMBRERO KEY NOT AVBL  
LONG KEY 1500 82 83 240/ 10/ 11 1012.0R  
MOLASSES REEF NOT AVBL  
FOWEY ROCKS NOT AVBL  
 

 
 
 
CLICK HERE TO GO TO PREVIOUS BULLETINS.

The Nexlab FL Page Main Text Page